| time (UTC) | temp F | wind direction | speed MPH | gust MPH | rain 1hr in | rain 24hr in | rain mn in | humidity % | barometer mb |
| 20260506050524 | 57 | 0.0 | 0.0 | 0.02 | 0.13 | 0.02 | 99 | 1009.0 | |
| 20260506044540 | 57 | 0.0 | 0.0 | 0.03 | 0.13 | 0.02 | 99 | 1009.1 | |
| 20260506043535 | 57 | 0.0 | 0.0 | 0.03 | 0.13 | 0.02 | 99 | 1008.7 | |
| 20260506042551 | 58 | 0.0 | 0.0 | 0.03 | 0.13 | 0.02 | 99 | 1008.7 | |
| 20260506041528 | 57 | 316 | 1.0 | 3.0 | 0.02 | 0.12 | 0.01 | 99 | 1008.6 |
| 20260506040545 | 58 | 0.0 | 0.0 | 0.01 | 0.11 | 0.00 | 99 | 1008.6 | |
| 20260506035521 | 58 | 0.0 | 0.0 | 0.00 | 0.10 | 0.10 | 99 | 1008.3 | |
| 20260506034517 | 57 | 0.0 | 0.0 | 0.00 | 0.10 | 0.10 | 99 | 1008.4 | |
| 20260506033532 | 58 | 285 | 0.0 | 1.0 | 0.00 | 0.10 | 0.10 | 98 | 1008.3 |
| 20260506032529 | 58 | 0.0 | 0.0 | 0.00 | 0.10 | 0.10 | 97 | 1008.1 | |
| 20260506031524 | 58 | 0.0 | 0.0 | 0.00 | 0.10 | 0.10 | 97 | 1008.0 | |
| 20260506030540 | 58 | 0.0 | 0.0 | 0.00 | 0.10 | 0.10 | 97 | 1007.9 | |
| 20260506025516 | 58 | 0.0 | 0.0 | 0.00 | 0.10 | 0.10 | 97 | 1007.9 | |
| 20260506024532 | 58 | 0.0 | 0.0 | 0.00 | 0.10 | 0.10 | 97 | 1007.8 | |
| 20260506023529 | 58 | 0.0 | 0.0 | 0.00 | 0.10 | 0.10 | 97 | 1007.8 | |
| 20260506022526 | 58 | 0.0 | 0.0 | 0.00 | 0.10 | 0.10 | 97 | 1007.8 | |
| 20260506021521 | 58 | 0.0 | 0.0 | 0.00 | 0.10 | 0.10 | 97 | 1007.9 | |
| 20260506020516 | 58 | 0.0 | 0.0 | 0.00 | 0.10 | 0.10 | 97 | 1007.7 | |
| 20260506015552 | 58 | 0.0 | 0.0 | 0.00 | 0.10 | 0.10 | 97 | 1007.7 | |
| 20260506014548 | 57 | 0.0 | 0.0 | 0.00 | 0.10 | 0.10 | 96 | 1007.7 | |
| 20260506013524 | 58 | 0.0 | 0.0 | 0.00 | 0.10 | 0.10 | 96 | 1007.6 | |
| 20260506012521 | 58 | 0.0 | 0.0 | 0.00 | 0.10 | 0.10 | 95 | 1007.4 | |
| 20260506011517 | 57 | 0.0 | 0.0 | 0.00 | 0.10 | 0.10 | 98 | 1007.5 | |
| 20260506010533 | 58 | 0.0 | 0.0 | 0.00 | 0.10 | 0.10 | 97 | 1007.1 | |
| 20260506005649 | 57 | 0.0 | 0.0 | 0.00 | 0.10 | 0.10 | 97 | 1006.7 | |
| 20260506004525 | 58 | 0.0 | 0.0 | 0.00 | 0.10 | 0.10 | 95 | 1006.5 | |
| 20260506003521 | 58 | 0.0 | 0.0 | 0.00 | 0.10 | 0.10 | 95 | 1006.6 | |
| 20260506002516 | 59 | 0.0 | 0.0 | 0.00 | 0.10 | 0.10 | 94 | 1006.6 | |
| 20260506001553 | 60 | 0.0 | 0.0 | 0.00 | 0.10 | 0.10 | 92 | 1006.5 | |
| 20260506000549 | 61 | 0.0 | 0.0 | 0.00 | 0.10 | 0.10 | 90 | 1006.4 | |
| 20260505235524 | 61 | 0.0 | 0.0 | 0.00 | 0.10 | 0.10 | 92 | 1006.5 | |
| 20260505234520 | 61 | 0.0 | 0.0 | 0.00 | 0.10 | 0.10 | 93 | 1006.3 | |
| 20260505233517 | 61 | 0.0 | 0.0 | 0.00 | 0.10 | 0.10 | 91 | 1006.2 | |
| 20260505232534 | 62 | 0.0 | 0.0 | 0.00 | 0.10 | 0.10 | 90 | 1006.3 | |
| 20260505231529 | 64 | 141 | 1.0 | 2.0 | 0.00 | 0.10 | 0.10 | 84 | 1006.0 |
| 20260505230537 | 65 | 228 | 1.0 | 2.0 | 0.00 | 0.10 | 0.10 | 77 | 1006.3 |
| 20260505225522 | 65 | 0.0 | 0.0 | 0.00 | 0.10 | 0.10 | 76 | 1006.4 | |
| 20260505224517 | 66 | 201 | 2.0 | 6.0 | 0.00 | 0.10 | 0.10 | 75 | 1006.4 |
| 20260505223534 | 65 | 199 | 1.0 | 4.0 | 0.00 | 0.10 | 0.10 | 78 | 1006.2 |
| 20260505222530 | 66 | 213 | 2.0 | 4.0 | 0.00 | 0.10 | 0.10 | 78 | 1006.0 |
| 20260505221547 | 66 | 216 | 2.0 | 6.0 | 0.00 | 0.10 | 0.10 | 76 | 1005.7 |
| 20260505220523 | 66 | 166 | 1.0 | 4.0 | 0.00 | 0.10 | 0.10 | 74 | 1005.5 |
| 20260505215519 | 67 | 166 | 2.0 | 3.0 | 0.00 | 0.10 | 0.10 | 73 | 1005.7 |
| 20260505214535 | 67 | 276 | 5.0 | 10.0 | 0.00 | 0.10 | 0.10 | 71 | 1005.8 |
| 20260505213551 | 68 | 276 | 5.0 | 9.0 | 0.00 | 0.10 | 0.10 | 70 | 1006.0 |
| 20260505212528 | 67 | 299 | 2.0 | 4.0 | 0.00 | 0.10 | 0.10 | 78 | 1006.0 |
| 20260505211544 | 67 | 32 | 0.0 | 1.0 | 0.00 | 0.10 | 0.10 | 81 | 1005.5 |
| 20260505210520 | 67 | 170 | 2.0 | 4.0 | 0.00 | 0.10 | 0.10 | 79 | 1004.9 |
| 20260505205516 | 67 | 138 | 2.0 | 6.0 | 0.01 | 0.10 | 0.10 | 81 | 1004.4 |
| 20260505204531 | 66 | 169 | 2.0 | 6.0 | 0.06 | 0.10 | 0.10 | 85 | 1004.6 |
| 20260505203528 | 67 | 0.0 | 0.0 | 0.10 | 0.10 | 0.10 | 84 | 1004.1 | |
| 20260505202525 | 66 | 0.0 | 0.0 | 0.10 | 0.10 | 0.10 | 81 | 1004.0 | |
| 20260505201520 | 65 | 277 | 5.0 | 11.0 | 0.10 | 0.10 | 0.10 | 80 | 1004.9 |
| 20260505200516 | 64 | 276 | 8.0 | 15.0 | 0.10 | 0.10 | 0.10 | 84 | 1004.9 |
| 20260505195532 | 64 | 260 | 9.0 | 19.0 | 0.09 | 0.09 | 0.09 | 83 | 1005.1 |
| 20260505194528 | 68 | 278 | 12.0 | 22.0 | 0.04 | 0.04 | 0.04 | 73 | 1004.3 |
| 20260505193524 | 76 | 256 | 8.0 | 18.0 | 0.00 | 0.00 | 0.00 | 51 | 1003.1 |
| 20260505192520 | 79 | 215 | 8.0 | 17.0 | 0.00 | 0.00 | 0.00 | 45 | 1002.6 |
| 20260505191516 | 79 | 223 | 7.0 | 18.0 | 0.00 | 0.00 | 0.00 | 45 | 1002.5 |
| 20260505190532 | 79 | 222 | 10.0 | 24.0 | 0.00 | 0.00 | 0.00 | 44 | 1002.4 |
| 20260505185528 | 80 | 242 | 7.0 | 17.0 | 0.00 | 0.00 | 0.00 | 44 | 1002.4 |
| 20260505184524 | 80 | 218 | 7.0 | 19.0 | 0.00 | 0.00 | 0.00 | 44 | 1002.5 |
| 20260505183520 | 80 | 214 | 8.0 | 19.0 | 0.00 | 0.00 | 0.00 | 44 | 1002.7 |
| 20260505182516 | 81 | 238 | 7.0 | 14.0 | 0.00 | 0.00 | 0.00 | 44 | 1002.6 |
| 20260505181532 | 80 | 224 | 7.0 | 15.0 | 0.00 | 0.00 | 0.00 | 45 | 1002.7 |
| 20260505180528 | 80 | 216 | 9.0 | 21.0 | 0.00 | 0.00 | 0.00 | 44 | 1003.1 |
| 20260505175524 | 80 | 201 | 10.0 | 19.0 | 0.00 | 0.00 | 0.00 | 44 | 1003.4 |
| 20260505174541 | 80 | 211 | 9.0 | 19.0 | 0.00 | 0.00 | 0.00 | 44 | 1003.6 |
| 20260505173517 | 80 | 216 | 8.0 | 17.0 | 0.00 | 0.00 | 0.00 | 44 | 1003.7 |
| 20260505172533 | 81 | 236 | 8.0 | 17.0 | 0.00 | 0.00 | 0.00 | 45 | 1003.6 |
| 20260505171549 | 80 | 225 | 7.0 | 18.0 | 0.00 | 0.00 | 0.00 | 45 | 1003.7 |
| 20260505170526 | 80 | 217 | 6.0 | 16.0 | 0.00 | 0.00 | 0.00 | 46 | 1003.7 |
| 20260505165542 | 79 | 239 | 9.0 | 22.0 | 0.00 | 0.00 | 0.00 | 47 | 1004.0 |
| 20260505164519 | 78 | 230 | 8.0 | 18.0 | 0.00 | 0.00 | 0.00 | 48 | 1004.2 |
| 20260505163535 | 78 | 215 | 9.0 | 26.0 | 0.00 | 0.00 | 0.00 | 47 | 1004.5 |
| 20260505162531 | 77 | 233 | 9.0 | 17.0 | 0.00 | 0.00 | 0.00 | 48 | 1004.7 |
| 20260505161528 | 77 | 213 | 9.0 | 21.0 | 0.00 | 0.00 | 0.00 | 48 | 1004.9 |
| 20260505160524 | 77 | 230 | 7.0 | 17.0 | 0.00 | 0.00 | 0.00 | 50 | 1004.9 |
| 20260505152527 | 74 | 235 | 8.0 | 23.0 | 0.00 | 0.00 | 0.00 | 52 | 1005.5 |
| 20260505151523 | 73 | 230 | 6.0 | 11.0 | 0.00 | 0.00 | 0.00 | 55 | 1005.5 |
| 20260505150519 | 72 | 220 | 4.0 | 13.0 | 0.00 | 0.00 | 0.00 | 56 | 1005.5 |
| 20260505140535 | 67 | 213 | 2.0 | 7.0 | 0.00 | 0.00 | 0.00 | 62 | 1006.8 |
| 20260505124523 | 65 | 198 | 1.0 | 3.0 | 0.00 | 0.00 | 0.00 | 68 | 1006.9 |
| 20260505123539 | 64 | 224 | 3.0 | 7.0 | 0.00 | 0.00 | 0.00 | 67 | 1006.9 |
| 20260505122515 | 64 | 227 | 5.0 | 13.0 | 0.00 | 0.00 | 0.00 | 66 | 1007.0 |
| 20260505121532 | 64 | 258 | 4.0 | 7.0 | 0.00 | 0.00 | 0.00 | 66 | 1006.7 |
| 20260505120527 | 63 | 262 | 3.0 | 7.0 | 0.00 | 0.00 | 0.00 | 65 | 1006.6 |
| 20260505115523 | 63 | 265 | 4.0 | 7.0 | 0.00 | 0.00 | 0.00 | 65 | 1006.7 |
| 20260505114518 | 61 | 230 | 4.0 | 8.0 | 0.00 | 0.00 | 0.00 | 67 | 1006.7 |
| 20260505113515 | 61 | 266 | 4.0 | 7.0 | 0.00 | 0.00 | 0.00 | 66 | 1006.8 |
| 20260505112551 | 61 | 244 | 4.0 | 8.0 | 0.00 | 0.00 | 0.00 | 65 | 1006.9 |
| 20260505111527 | 61 | 227 | 5.0 | 15.0 | 0.00 | 0.00 | 0.00 | 63 | 1006.8 |
| 20260505110524 | 61 | 224 | 2.0 | 6.0 | 0.00 | 0.00 | 0.00 | 62 | 1006.6 |
| 20260505101525 | 57 | 0.0 | 0.0 | 0.00 | 0.00 | 0.00 | 68 | 1006.3 | |
| 20260505100543 | 57 | 0.0 | 0.0 | 0.00 | 0.00 | 0.00 | 67 | 1006.3 | |
| 20260505095537 | 56 | 0.0 | 0.0 | 0.00 | 0.00 | 0.00 | 68 | 1006.1 | |
| 20260505094533 | 57 | 0.0 | 0.0 | 0.00 | 0.00 | 0.00 | 67 | 1006.2 | |
| 20260505093528 | 58 | 0.0 | 0.0 | 0.00 | 0.00 | 0.00 | 65 | 1006.4 | |
| 20260505092525 | 58 | 226 | 0.0 | 1.0 | 0.00 | 0.00 | 0.00 | 64 | 1006.4 |
| 20260505091521 | 58 | 0.0 | 0.0 | 0.00 | 0.00 | 0.00 | 64 | 1006.3 | |
| 20260505090518 | 58 | 0.0 | 0.0 | 0.00 | 0.00 | 0.00 | 63 | 1006.2 | |
| 20260505085534 | 58 | 218 | 0.0 | 3.0 | 0.00 | 0.00 | 0.00 | 64 | 1006.3 |
| 20260505084531 | 58 | 0.0 | 0.0 | 0.00 | 0.00 | 0.00 | 64 | 1006.4 | |
| 20260505083546 | 58 | 0.0 | 0.0 | 0.00 | 0.00 | 0.00 | 63 | 1006.5 | |
| 20260505082522 | 58 | 233 | 0.0 | 3.0 | 0.00 | 0.00 | 0.00 | 63 | 1006.5 |
| 20260505081518 | 58 | 241 | 1.0 | 3.0 | 0.00 | 0.00 | 0.00 | 63 | 1006.6 |
| 20260505080615 | 59 | 275 | 0.0 | 3.0 | 0.00 | 0.00 | 0.00 | 62 | 1006.4 |
| 20260505075530 | 59 | 314 | 0.0 | 1.0 | 0.00 | 0.00 | 0.00 | 62 | 1006.5 |
| 20260505074527 | 58 | 0.0 | 0.0 | 0.00 | 0.00 | 0.00 | 62 | 1006.4 | |
| 20260505073523 | 59 | 0.0 | 0.0 | 0.00 | 0.00 | 0.00 | 61 | 1006.3 | |
| 20260505072540 | 59 | 261 | 0.0 | 3.0 | 0.00 | 0.00 | 0.00 | 62 | 1006.3 |
| 20260505071516 | 59 | 0.0 | 0.0 | 0.00 | 0.00 | 0.00 | 62 | 1006.3 | |
| 20260505070532 | 59 | 0.0 | 0.0 | 0.00 | 0.00 | 0.00 | 62 | 1006.4 | |
| 20260505065548 | 59 | 229 | 1.0 | 6.0 | 0.00 | 0.00 | 0.00 | 61 | 1006.5 |
| 20260505064525 | 59 | 229 | 0.0 | 1.0 | 0.00 | 0.00 | 0.00 | 62 | 1006.6 |
| 20260505063522 | 59 | 219 | 2.0 | 4.0 | 0.00 | 0.00 | 0.00 | 62 | 1006.4 |
| 20260505062518 | 59 | 228 | 0.0 | 2.0 | 0.00 | 0.00 | 0.00 | 62 | 1006.5 |
| 20260505061533 | 58 | 146 | 0.0 | 2.0 | 0.00 | 0.00 | 0.00 | 62 | 1006.4 |
| 20260505060532 | 58 | 216 | 0.0 | 1.0 | 0.00 | 0.00 | 0.00 | 62 | 1006.5 |
| 20260505055527 | 58 | 0.0 | 0.0 | 0.00 | 0.00 | 0.00 | 61 | 1006.4 | |
| 20260505054522 | 59 | 196 | 0.0 | 4.0 | 0.00 | 0.00 | 0.00 | 60 | 1006.6 |
| 20260505053537 | 58 | 213 | 1.0 | 7.0 | 0.00 | 0.00 | 0.00 | 61 | 1006.5 |
| 20260505052554 | 58 | 0.0 | 0.0 | 0.00 | 0.00 | 0.00 | 61 | 1006.5 | |
| 20260505051549 | 59 | 225 | 0.0 | 2.0 | 0.00 | 0.00 | 0.00 | 60 | 1006.5 |